Regional Weather Roundup
Issued by NWS

Home | Current Version | Previous Version | Graphics & Text | Print | Product List | Glossary On
Versions: 1 2 3 4 5 6 7 8 9 10 11 12 13 14 15 16 17 18 19 20 21 22 23 24 25 26 27 28 29 30 31 32 33 34 35 36 37 38 39 40 41 42 43 44 45 46 47 48 49 50
000
ASUS43 KLMK 300902
RWRKY
KENTUCKY REGIONAL WEATHER ROUNDUP
NATIONAL WEATHER SERVICE LOUISVILLE KY
500 AM EDT SUN APR 30 2017

NOTE "FAIR" INDICATES FEW OR NO CLOUDS BELOW 12,000 FEET
WITH NO SIGNIFICANT WEATHER AND/OR OBSTRUCTIONS TO VISIBILITY.

KYZ001>023-026-027-061>063-070>075-301000-
WESTERN AND SOUTH CENTRAL KENTUCKY

CITY           SKY/WX    TMP DP  RH WIND       PRES   REMARKS
PADUCAH        TSTM      68  64  87 S14G24    29.78R FOG
HENDERSON        N/A    N/A N/A N/A MISG        N/A
OWENSBORO      CLOUDY    66  62  87 E6        29.84F
HOPKINSVILLE   CLOUDY    75  64  67 S12G21    29.83F
BOWLING GREEN  PTCLDY    75  65  70 S12       29.90R
GLASGOW        NOT AVBL
$$

KYZ024-025-028>034-038-045-046-053-301000-
NORTH CENTRAL KENTUCKY

CITY           SKY/WX    TMP DP  RH WIND       PRES   REMARKS
LOUISVILLE/SDF PTCLDY    74  64  71 S8        29.88F
LOUISVILLE/LOU PTCLDY    74  65  73 S5        29.89S
FORT KNOX      PTCLDY    69  63  82 CALM      29.87F
$$

KYZ035>037-039>044-047>052-055>060-089>105-301000-
NORTHEAST KENTUCKY

CITY           SKY/WX    TMP DP  RH WIND       PRES   REMARKS
LEXINGTON      CLEAR     71  63  75 SE9       29.95F
COVINGTON      CLOUDY    70  64  81 S5        29.93R
FRANKFORT      CLEAR     72  63  73 SE8       29.92R
$$

KYZ054-064>069-076>088-106>120-301000-
SOUTHEAST KENTUCKY

CITY           SKY/WX    TMP DP  RH WIND       PRES   REMARKS
JACKSON        PTCLDY    69  62  78 CALM      30.01S
LONDON         CLEAR     73  62  68 S6        30.00S
SOMERSET       CLEAR     72  63  73 S7        29.99S
MIDDLESBORO    PTCLDY    63  62  97 CALM      30.04R
MONTICELLO     MOSUNNY   71  66  84 E8        29.99S
$$





USA.gov is the U.S. government's official web portal to all federal, state and local government web resources and services.